Temp
12 12 12 12 12 12 12 11 11 11 11 11 11 11 11 11 11 11 11 10 10 10 10 10 10 10 10 11 11 11 11 11 11 11 11 11 11 11 11 11 11 11 11 11 11 11 10 10 10 10 10 10 10 11 11 11 11 11 11 11 11 11 11 11 11 11 12 12 12
12 12 12 11 11 11 11 11 11 11 11 11 11 11 10 10 10 10 10 10 10 10 10 10 10 10 10 10 10 10 10 10 10 10 10 10 10 10 10 10 10 10 10 10 10 10 10 10 10 10 10 10 10 10 10 10 11 11 11 11 11 11 11 11 11 11 11 11 11
11 11 11 11 11 11 10 10 10 10 10 10 10 10 10 10 10 10 9 9 9 9 9 9 9 9 9 9 9 9 9 9 9 9 9 9 9 9 9 9 9 9 10 10 10 10 10 10 10 9 10 10 10 10 10 10 10 10 10 10 10 10 10 10 11 11 11 11 11
11 11 11 11 10 10 10 10 10 10 10 10 10 10 9 9 9 9 9 9 9 9 9 9 9 8 8 8 9 9 9 9 9 9 9 9 9 9 9 9 9 9 9 9 9 9 9 9 9 9 9 9 10 10 10 10 10 10 10 10 10 10 10 10 10 11 11 11 11
11 10 10 10 10 10 10 10 9 9 9 9 9 9 9 9 8 8 8 8 8 8 8 8 8 8 8 8 8 8 8 8 8 8 8 8 8 8 9 9 9 9 9 9 9 9 9 9 9 9 9 9 9 9 10 10 10 10 10 10 10 10 10 10 10 10 10 10 10
10 10 10 10 10 10 10 9 9 9 9 9 9 9 8 8 8 8 8 8 8 8 8 8 8 8 8 8 8 8 8 8 8 8 8 8 8 8 8 8 8 8 8 8 8 8 8 9 9 9 9 9 9 9 9 9 9 9 9 9 9 9 10 10 10 10 10 10 10
10 10 10 10 10 9 9 9 9 9 8 8 8 8 8 8 7 7 7 7 7 7 7 7 7 7 7 7 7 7 7 7 7 7 7 8 8 8 8 8 8 8 8 8 8 8 8 8 8 8 9 9 9 9 9 9 9 9 9 9 9 9 9 9 9 10 10 10 10
10 10 9 9 9 9 9 9 8 8 8 8 8 8 7 7 7 7 7 7 7 7 7 7 7 7 7 7 7 7 7 7 7 7 7 7 7 7 7 7 7 8 8 8 8 8 8 8 8 8 8 8 8 9 9 9 9 9 9 9 9 9 9 9 9 9 9 9 10
9 9 9 9 9 9 9 9 8 8 8 8 7 7 7 7 7 7 7 7 7 7 7 7 7 7 7 7 7 7 6 6 7 7 7 7 7 7 7 7 7 7 7 7 7 7 7 8 8 8 8 8 8 8 8 8 9 9 8 8 8 8 8 9 9 9 9 9 9
9 9 9 9 9 9 9 8 8 8 8 7 7 7 7 7 7 6 6 6 6 6 6 6 6 6 6 6 6 6 6 6 6 6 6 6 6 7 7 7 7 7 7 7 7 7 7 7 7 7 8 8 8 8 8 8 8 8 8 8 8 8 8 8 8 9 9 9 9
9 9 9 8 8 8 8 8 8 7 7 7 7 7 7 6 6 6 6 6 6 6 6 6 6 6 6 6 6 6 6 6 6 6 6 6 6 6 6 6 6 6 6 6 6 7 7 7 7 7 7 7 7 8 8 8 8 8 8 8 8 8 8 8 8 8 8 8 8
8 8 8 8 8 8 8 8 7 7 7 7 7 6 6 6 6 6 6 6 6 5 5 5 5 5 5 5 5 5 5 5 5 5 5 6 6 6 6 6 6 6 6 6 6 6 6 6 7 7 7 7 7 7 7 7 7 7 7 7 7 7 8 8 8 8 8 8 8
8 8 8 8 8 8 8 7 7 7 7 6 6 6 6 6 6 6 5 5 5 5 5 5 5 5 5 5 5 5 5 5 5 5 5 5 5 5 5 5 5 5 5 6 6 6 6 6 6 6 6 7 7 7 7 7 7 7 7 7 7 7 7 7 8 8 8 8 8
8 8 8 8 8 8 7 7 7 6 6 6 6 5 5 5 5 5 5 5 5 5 5 4 4 4 4 4 4 4 4 4 5 5 5 5 5 5 5 5 5 5 5 5 5 5 5 6 6 6 6 6 6 6 6 6 6 6 6 7 7 7 7 7 7 7 7 8 8
7 7 7 7 7 7 7 6 6 6 6 6 5 5 5 5 5 5 5 4 4 4 4 4 4 4 4 4 4 4 4 4 4 4 4 4 4 4 4 5 5 5 5 5 5 5 5 5 5 5 5 6 6 6 6 6 6 6 6 6 6 7 7 7 7 7 7 7 7
7 7 7 7 7 7 6 6 5 5 5 5 5 5 5 4 4 4 4 4 4 4 4 4 4 4 4 4 4 4 4 4 4 4 4 4 4 4 4 4 4 4 4 4 4 4 5 5 5 5 5 5 5 5 5 5 5 6 6 6 6 6 6 7 7 7 7 7 7
7 7 7 7 6 6 6 6 5 5 5 5 4 4 4 4 4 4 4 4 4 3 3 3 3 3 3 3 3 4 3 3 4 4 4 4 4 4 4 4 4 4 4 4 4 4 4 4 4 4 4 4 4 5 5 5 5 5 6 6 6 6 6 6 6 7 7 7 7
6 6 6 6 6 6 5 5 5 5 4 4 4 4 4 4 4 3 3 3 3 3 3 3 3 3 3 3 3 3 3 3 3 3 3 3 3 3 4 4 4 3 3 3 3 4 4 4 4 4 4 4 4 4 4 5 5 5 5 5 5 6 6 6 6 6 6 6 7
6 6 6 6 5 5 5 5 5 4 4 4 4 4 3 3 3 3 3 3 3 3 3 3 3 3 3 3 3 3 3 3 3 3 3 3 3 3 3 3 3 3 3 3 3 3 3 3 3 3 3 4 4 4 4 4 5 5 5 5 5 5 5 6 6 6 6 6 6
5 5 5 5 5 5 5 4 4 4 4 3 3 3 3 3 3 3 3 3 3 3 3 3 3 3 3 3 3 3 3 3 3 3 3 3 3 3 3 3 3 3 3 3 3 3 3 3 3 3 3 3 4 4 4 4 4 4 4 5 5 5 5 5 5 5 6 6 6
5 5 5 5 5 5 4 4 4 3 3 3 3 3 3 3 3 3 3 3 3 3 3 3 3 3 3 3 3 3 3 3 3 3 3 3 3 3 3 3 3 3 3 3 3 3 3 3 3 3 3 3 3 4 4 4 4 4 4 4 4 5 5 5 5 5 5 6 6
5 5 5 5 4 4 4 4 3 3 3 3 3 3 3 3 3 3 3 3 3 3 2 2 2 2 2 2 2 3 3 3 3 2 2 2 2 2 2 2 2 2 2 2 2 2 2 2 3 3 3 3 3 4 4 4 4 4 4 4 4 4 4 5 5 5 5 6 6
5 5 5 5 4 4 4 3 3 3 3 3 3 3 3 3 3 3 3 3 3 2 2 2 2 2 2 2 2 2 2 2 2 2 2 2 2 2 2 2 2 2 2 2 2 2 2 2 2 3 3 3 3 3 3 3 4 4 4 4 4 4 4 5 5 5 5 5 5
4 4 4 4 4 4 3 3 3 3 3 3 3 3 3 2 2 2 2 2 2 2 2 2 2 2 2 2 2 2 2 2 2 2 2 2 2 2 2 2 2 2 2 2 2 2 2 2 2 3 3 3 3 3 3 3 3 3 4 4 4 4 4 5 5 5 5 5 5
4 4 4 4 3 3 3 3 3 3 3 3 3 3 2 2 2 2 2 2 2 2 2 2 2 2 2 2 2 2 2 2 2 2 2 2 2 2 2 2 2 2 1 1 2 2 2 2 2 3 3 3 3 3 3 3 3 3 3 4 4 4 4 4 5 5 5 5 5
4 4 4 3 3 3 3 3 3 3 3 3 3 2 2 2 2 2 2 2 2 2 2 2 2 2 2 2 2 2 2 1 1 1 1 1 1 1 1 1 1 1 1 1 1 2 2 2 2 3 3 3 3 3 3 3 3 3 3 3 4 4 4 4 5 5 5 5 5
4 3 3 3 3 3 3 3 3 3 3 2 2 2 2 2 2 2 2 2 2 2 2 1 1 1 1 1 1 1 1 1 1 1 1 1 1 1 1 1 1 1 1 1 1 1 2 2 2 2 3 3 3 3 3 3 3 3 3 3 4 4 4 4 4 4 4 4 4
3 3 3 3 3 3 3 3 3 2 2 2 2 2 2 2 2 2 2 2 2 1 1 1 1 1 1 1 1 1 1 1 1 1 1 1 1 1 1 1 1 1 1 1 1 1 2 2 2 2 2 2 2 2 2 3 3 3 3 3 3 4 4 4 4 4 4 4 4
3 3 3 3 3 3 2 2 2 2 2 2 2 2 2 2 2 2 1 1 1 1 1 1 1 1 1 1 1 1 1 1 1 1 1 1 0 0 0 0 0 0 0 1 1 1 1 2 2 2 2 2 2 2 2 2 3 3 3 3 3 3 3 3 4 4 4 4 4
2 2 2 2 2 2 2 2 2 2 2 2 2 2 2 1 1 1 1 1 1 1 1 1 1 1 1 1 1 0 0 0 0 0 0 0 0 0 0 0 0 0 0 0 1 1 1 2 2 2 2 2 2 2 2 2 2 3 3 3 3 3 3 3 3 3 3 3 3
2 2 2 2 2 2 2 2 2 2 1 1 1 1 1 1 1 1 1 1 0 0 0 0 0 0 0 0 0 0 0 0 0 0 0 0 0 0 0 0 0 0 0 0 1 1 1 1 1 2 2 2 2 2 2 2 2 2 2 3 3 3 3 3 3 3 3 3 3
2 2 2 2 2 2 1 1 1 1 1 1 1 1 1 1 0 0 0 0 0 0 0 0 0 0 0 0 0 -0 -0 -0 -0 -0 -0 -0 -0 -0 -0 -0 -0 -0 0 0 1 1 1 1 1 1 2 2 2 2 2 2 2 2 2 2 2 2 2 2 2 2 2 2 2
2 2 2 2 1 1 1 1 1 1 1 1 1 0 0 0 0 0 0 0 0 0 0 -0 -0 -0 -0 -0 -0 -0 -0 -0 -0 -0 -0 -0 -0 -0 -0 -0 -0 -0 -0 0 0 1 1 1 1 1 1 2 2 2 2 2 2 2 2 2 2 2 2 2 2 2 2 2 2
2 2 2 1 1 1 1 1 1 1 1 0 0 0 0 0 0 0 0 -0 -0 -0 -0 -0 -0 -0 -0 -1 -1 -1 -1 -1 -0 -0 -0 -0 -0 -0 -1 -1 -0 -0 -0 -0 0 0 1 1 1 1 1 1 2 2 2 2 2 2 2 2 2 2 2 2 2 2 2 2 2
1 1 1 1 1 1 1 1 1 0 0 0 0 0 0 -0 -0 -0 -0 -0 -0 -0 -0 -0 -1 -1 -1 -1 -1 -1 -1 -1 -1 -1 -1 -1 -1 -1 -1 -1 -1 -0 -0 -0 -0 0 0 1 1 1 1 1 1 2 2 2 2 2 2 2 2 2 2 2 2 2 2 2 2
1 1 1 1 1 1 1 0 0 0 0 0 -0 -0 -0 -0 -0 -0 -0 -0 -1 -1 -1 -1 -1 -1 -1 -1 -1 -1 -1 -1 -1 -1 -1 -1 -1 -1 -1 -1 -1 -1 -0 -0 -0 -0 0 0 1 1 1 1 1 1 2 2 2 2 2 2 2 2 2 2 2 2 2 2 2
1 1 1 1 1 1 0 0 0 0 -0 -0 -0 -0 -0 -1 -1 -1 -1 -1 -1 -1 -1 -1 -1 -1 -1 -1 -1 -1 -1 -1 -1 -1 -1 -1 -1 -1 -1 -1 -1 -1 -1 -0 -0 -0 -0 0 0 1 1 1 1 1 1 1 1 1 1 1 1 2 2 2 2 2 2 2 2
1 1 1 1 1 0 0 0 -0 -0 -0 -0 -0 -1 -1 -1 -1 -1 -1 -1 -1 -1 -1 -1 -1 -1 -1 -1 -1 -1 -1 -1 -1 -1 -1 -1 -1 -1 -1 -1 -1 -1 -1 -1 -0 -0 -0 0 0 1 1 1 1 1 1 1 1 1 1 1 1 1 1 2 2 2 2 2 2
1 1 1 0 0 0 0 -0 -0 -0 -0 -0 -1 -1 -1 -1 -1 -1 -1 -1 -1 -1 -1 -1 -1 -1 -1 -1 -1 -1 -1 -1 -1 -1 -1 -1 -1 -1 -1 -1 -1 -1 -1 -1 -0 -0 -0 0 0 1 1 1 1 1 1 1 1 1 1 1 1 1 1 2 2 2 2 2 2
1 1 1 0 0 0 -0 -0 -0 -0 -1 -1 -1 -1 -1 -1 -1 -1 -1 -1 -1 -2 -2 -2 -1 -1 -1 -1 -1 -2 -1 -1 -1 -1 -1 -1 -1 -1 -1 -1 -1 -1 -1 -1 -1 -0 -0 0 0 1 1 1 1 1 1 1 1 1 1 1 1 1 1 2 2 2 2 2 2
1 1 1 0 0 -0 -0 -0 -0 -1 -1 -1 -1 -1 -1 -1 -1 -1 -1 -1 -2 -2 -2 -2 -2 -2 -2 -2 -2 -2 -2 -1 -1 -1 -1 -1 -1 -1 -1 -1 -1 -1 -1 -1 -1 -0 -0 0 0 1 1 1 1 1 1 1 1 1 1 1 1 1 2 2 2 2 2 2 2
Height
772 771 771 770 770 770 770 769 769 769 768 768 767 767 766 765 765 764 764 763 762 761 760 759 758 756 755 754 752 751 750 748 747 746 745 743 742 741 740 738 737 735 734 733 731 730 729 727 726 725 723 722 721 720 719 718 716 715 714 713 712 710 709 708 706 705 704 702 701
772 772 772 771 771 770 770 770 770 769 769 769 768 767 767 766 765 765 764 763 762 761 760 759 757 756 755 753 752 751 749 748 746 745 744 743 742 740 739 738 736 735 734 733 731 730 729 727 725 724 723 721 720 719 718 717 716 715 713 712 711 709 708 706 705 704 702 701 700
773 773 772 772 771 771 770 770 770 770 769 769 768 768 767 766 766 765 764 763 762 761 760 758 757 756 755 753 752 750 749 748 746 745 744 742 741 740 739 737 736 735 734 732 731 730 728 727 725 724 722 721 720 718 717 716 715 714 712 711 710 708 707 705 704 703 701 700 699
774 773 773 772 772 772 771 771 770 770 770 769 768 768 767 766 765 765 764 763 761 760 759 758 757 755 754 753 751 750 749 747 746 745 743 742 740 739 738 737 736 735 733 732 731 730 728 727 725 724 722 721 719 718 717 715 714 713 711 710 709 707 706 705 703 702 700 699 697
774 774 773 773 773 772 772 771 771 770 770 769 768 767 766 766 765 764 763 762 761 760 759 758 756 755 754 752 750 749 748 747 745 744 743 741 740 739 738 736 735 734 733 732 730 729 728 726 725 723 722 720 719 718 716 715 714 712 710 709 708 707 705 704 702 701 700 698 696
775 774 774 773 773 773 772 772 771 770 770 769 768 767 766 765 765 763 762 761 760 759 758 757 755 754 753 751 750 749 747 746 745 744 742 741 740 738 737 736 735 734 732 731 730 729 727 726 724 723 721 720 719 717 716 715 713 711 710 708 707 706 705 703 701 700 699 697 695
775 775 774 774 773 773 772 772 771 770 769 768 767 766 766 765 764 763 762 761 760 758 757 756 755 753 752 750 749 748 747 745 744 743 742 740 739 738 737 735 734 733 732 731 729 728 727 725 724 722 721 720 718 717 715 714 713 711 709 708 706 705 704 702 701 699 698 696 694
775 775 775 774 773 773 772 771 770 770 769 768 767 766 765 765 764 762 761 760 759 758 757 755 755 753 752 750 749 748 746 745 744 743 741 740 739 738 736 735 734 733 731 730 729 727 726 725 724 722 721 719 718 716 715 713 712 710 709 707 706 704 703 702 700 698 697 695 693
775 775 774 774 773 772 772 771 770 770 769 768 767 766 765 764 763 762 761 760 759 758 756 755 754 753 751 750 749 748 746 745 744 742 741 740 739 737 736 735 733 732 731 730 728 727 726 725 723 722 720 719 717 715 714 713 711 710 708 707 705 703 702 701 699 698 696 694 692
775 775 774 773 773 772 771 770 770 769 768 767 766 765 765 764 763 762 761 760 759 757 756 755 754 752 751 750 749 747 746 745 743 742 741 740 739 737 736 735 733 732 730 729 728 727 725 724 723 721 720 719 717 715 713 712 711 709 707 706 704 702 700 699 698 697 695 693 691
775 775 774 773 773 772 771 770 769 768 767 766 766 765 764 763 762 761 760 759 758 757 756 755 753 752 750 750 748 747 746 745 743 742 740 739 738 737 736 735 733 732 730 729 728 726 725 724 722 720 719 718 716 715 713 711 710 708 707 705 703 701 700 698 697 695 694 692 690
775 775 774 773 772 771 770 770 769 768 767 766 765 764 763 763 762 761 760 759 757 756 755 754 753 752 750 749 748 747 745 744 743 742 740 739 738 737 735 734 733 731 730 729 728 726 725 723 721 720 718 716 715 714 712 710 709 707 705 704 702 700 699 697 695 694 693 691 689
775 775 774 773 772 771 770 769 768 768 767 766 765 764 763 762 761 760 759 758 757 756 755 754 753 751 750 749 748 746 745 744 742 741 740 739 738 736 735 734 733 731 730 729 727 726 725 723 721 719 717 715 714 713 712 710 708 706 705 702 700 699 697 695 694 693 691 690 688
775 774 774 773 772 771 770 769 768 767 767 766 765 764 763 762 761 760 759 758 757 756 755 753 752 751 750 749 747 746 745 743 742 741 740 739 737 736 735 733 732 731 729 728 727 725 724 722 720 719 717 715 714 712 710 709 707 705 704 702 700 698 696 695 693 691 690 688 686
775 774 773 773 772 771 770 769 768 768 767 766 765 764 763 762 761 760 759 758 757 755 754 753 752 750 750 748 747 745 744 743 742 740 739 738 736 735 734 733 731 730 729 727 726 725 723 722 720 718 716 715 713 711 709 708 706 705 703 701 699 697 695 693 692 690 689 687 685
774 774 773 772 771 771 770 769 769 768 767 766 765 764 763 762 761 760 759 758 756 755 754 753 751 750 749 748 746 745 743 742 741 740 738 737 735 735 733 732 730 729 727 726 725 723 722 721 720 718 716 714 712 710 708 706 705 703 701 700 698 696 694 693 691 689 688 686 684
774 774 773 772 771 771 770 770 769 768 767 766 765 764 763 762 761 760 759 758 756 755 754 753 751 750 748 747 745 744 743 741 740 740 738 737 735 734 732 731 730 728 727 725 724 722 720 719 718 717 715 713 711 709 707 705 703 702 700 698 697 695 693 692 690 688 686 685 683
774 774 773 772 771 771 770 769 769 768 767 766 765 764 763 762 761 760 759 757 756 755 753 752 751 750 748 746 745 744 743 741 740 739 738 736 735 733 732 730 729 727 726 725 723 721 720 718 717 715 714 712 710 708 706 704 702 700 699 697 695 694 692 690 689 687 685 684 682
774 773 773 772 772 771 770 769 768 767 766 765 765 764 762 761 760 759 758 757 756 755 753 751 750 749 747 746 745 743 742 741 740 738 737 736 734 733 731 729 728 726 725 724 722 720 719 717 716 714 712 710 709 707 705 703 701 699 698 696 694 692 690 689 688 686 684 682 680
774 774 773 772 772 771 770 769 768 767 766 765 764 763 762 761 760 759 757 756 755 754 752 751 749 748 746 745 744 743 742 740 739 738 736 735 734 732 730 729 727 725 724 723 721 720 718 716 715 713 711 709 707 705 704 702 700 698 696 695 693 691 689 688 686 684 683 681 679
774 774 773 773 772 771 770 769 768 767 766 765 764 763 761 760 759 758 757 756 755 753 752 750 749 747 746 744 743 742 741 740 739 737 736 734 733 731 730 728 726 725 723 722 720 719 717 716 714 712 710 709 706 705 703 701 699 696 695 693 691 690 688 686 685 683 681 679 677
774 774 773 772 772 770 770 769 767 766 765 764 763 762 761 760 759 758 756 755 754 752 751 750 748 747 745 744 743 741 740 739 738 737 735 734 732 731 730 728 726 724 723 721 720 718 717 715 713 712 710 708 706 704 702 700 698 695 693 691 690 688 686 685 683 681 680 678 676
774 774 773 772 771 770 769 768 767 766 765 764 762 761 760 759 758 757 755 754 753 751 750 749 748 746 745 744 743 741 740 738 737 735 734 733 731 730 728 727 726 724 722 721 720 718 716 715 713 711 709 707 705 703 701 699 697 695 693 690 688 686 685 683 681 680 678 676 675
774 774 773 772 771 770 769 768 766 765 764 763 762 761 760 758 757 756 755 753 752 751 750 748 747 746 745 744 742 741 740 738 736 734 733 732 731 729 728 726 725 724 722 721 720 718 717 715 713 710 709 707 705 702 700 698 696 694 692 689 687 685 683 681 680 678 676 675 674
774 774 773 772 770 770 768 767 766 765 764 763 761 760 759 758 756 755 754 753 751 750 749 748 746 745 744 743 742 741 740 738 736 734 732 731 730 729 727 726 725 723 722 720 719 718 717 715 714 711 709 706 704 702 699 697 695 693 691 689 686 684 681 680 678 677 675 674 672
774 773 772 771 770 769 768 766 765 764 763 762 761 760 759 757 756 755 754 752 751 750 749 747 746 745 744 742 741 740 739 737 736 734 732 730 729 728 726 725 724 723 721 719 718 716 715 714 713 711 709 706 704 701 699 696 694 692 690 688 685 683 681 679 677 675 674 673 671
773 772 771 770 770 768 767 766 765 764 763 761 760 759 758 757 756 755 753 752 751 750 748 747 746 745 743 742 740 739 738 737 735 734 732 731 729 727 726 725 723 722 720 719 717 715 714 712 711 710 708 706 703 701 698 695 693 691 689 687 685 683 681 679 676 674 673 671 670
773 772 771 770 769 768 767 765 765 763 762 761 760 759 758 757 755 754 753 752 750 749 748 746 745 745 743 742 740 739 738 736 735 733 732 730 729 727 725 724 722 721 719 718 716 714 712 711 710 708 706 705 702 700 698 695 692 690 688 686 684 682 680 678 676 674 672 670 669
772 771 770 769 768 767 766 765 764 763 762 761 760 759 758 756 755 754 753 751 750 749 748 746 745 744 743 741 740 738 737 736 735 733 731 729 728 726 725 723 721 719 718 716 715 713 711 710 708 707 705 704 702 699 697 694 692 690 687 685 683 681 680 678 676 674 672 670 668
772 771 770 769 768 767 766 765 764 763 762 761 760 758 757 756 755 754 752 751 750 749 748 746 745 744 742 741 740 738 736 735 734 732 730 729 727 725 723 722 720 718 716 715 714 712 710 709 707 705 704 702 700 698 696 694 691 689 687 685 683 681 679 677 675 673 671 670 667
772 770 770 769 768 767 766 765 764 763 762 760 759 758 757 756 755 753 752 751 750 748 747 746 745 743 742 740 739 738 736 734 733 731 730 728 726 724 722 720 719 717 715 714 712 711 709 707 706 704 702 700 699 697 695 692 690 688 686 684 682 680 678 676 675 673 670 669 667
771 770 769 768 767 766 765 765 763 762 761 760 759 758 756 755 754 753 752 751 749 748 746 745 744 742 741 740 738 737 735 734 732 730 729 727 725 723 721 719 717 716 714 713 711 710 708 706 704 703 701 699 697 695 693 691 689 687 685 683 681 679 677 675 674 671 670 668 666
771 770 769 768 767 766 765 764 763 762 760 760 759 757 756 755 754 752 751 750 749 747 746 745 743 742 740 739 737 735 734 733 731 730 728 726 724 722 720 718 716 715 713 712 710 709 707 705 703 701 699 698 695 694 691 690 688 685 684 681 680 678 676 674 672 670 668 666 665
770 769 768 767 766 765 764 763 762 761 760 759 758 757 756 755 753 751 750 749 748 747 746 745 743 742 740 739 737 735 733 731 730 728 727 725 723 721 719 717 715 714 712 710 709 707 705 704 702 700 698 696 694 692 690 688 686 684 682 680 678 676 675 673 671 669 667 665 663
770 769 768 767 766 765 764 763 761 760 759 758 757 756 755 754 753 751 750 749 747 746 745 744 742 741 739 738 736 735 733 730 729 727 725 724 722 720 718 716 714 712 711 710 708 706 704 702 700 699 697 695 693 691 689 686 685 682 680 679 677 675 673 671 669 667 665 664 662
770 768 767 766 765 764 763 762 761 760 759 758 756 755 754 753 752 751 750 748 747 745 744 743 741 739 738 736 735 733 732 730 728 726 724 723 721 719 716 715 712 711 709 708 706 705 703 701 699 697 695 693 691 689 687 685 683 681 679 677 675 673 671 670 667 665 664 662 660
769 768 767 766 765 764 763 762 760 759 758 757 756 755 754 752 751 750 749 748 746 744 743 741 740 738 737 735 733 732 730 729 727 725 723 721 720 718 715 713 711 710 708 706 705 703 701 700 698 696 694 692 690 688 686 684 682 680 678 675 674 672 670 668 666 664 662 660 658
769 768 767 765 764 763 762 761 760 759 758 757 755 755 754 752 751 749 748 747 746 744 742 740 739 737 735 734 732 730 729 728 726 724 722 720 719 717 715 712 710 708 706 705 703 701 700 698 696 695 693 691 689 687 685 683 680 678 676 674 672 670 668 666 664 662 660 658 656
768 767 766 765 764 763 762 761 760 759 757 756 755 754 753 751 750 749 748 746 745 743 741 739 737 736 735 733 731 729 727 726 725 723 721 719 717 716 714 712 709 707 705 704 702 700 699 697 695 694 692 690 688 686 684 682 679 677 675 673 671 669 666 665 663 660 658 656 655
767 766 765 765 763 762 761 760 759 758 757 756 754 753 752 751 750 748 747 745 744 742 740 739 736 735 733 732 730 728 726 724 723 721 720 718 716 715 713 710 708 705 704 702 700 699 697 696 694 693 691 689 687 685 683 681 678 676 674 672 670 667 665 663 661 659 656 654 652
767 765 765 764 763 762 760 759 758 757 756 755 754 752 751 750 749 747 745 744 742 741 739 737 735 734 732 731 729 727 725 722 720 719 718 716 714 713 711 709 707 704 702 701 700 698 696 695 693 692 690 688 686 684 682 680 677 675 673 670 669 666 663 661 659 657 655 653 650
Wind_Speed
22 22 22 21 21 21 21 21 21 21 21 21 22 22 22 22 22 22 22 22 22 22 23 23 23 24 25 26 26 26 26 26 26 26 26 26 26 26 26 27 27 28 28 29 30 30 30 31 31 30 27 26 26 26 26 25 24 25 25 25 25 25 26 26 26 26 27 27 26
21 21 21 21 20 20 21 21 21 21 21 21 21 21 21 21 21 21 21 21 21 22 22 22 23 23 24 25 25 25 25 25 25 26 26 26 26 27 27 27 27 27 28 28 29 29 30 30 30 28 26 25 25 25 25 24 24 25 26 26 25 25 26 25 25 25 25 26 26
20 20 21 21 20 21 21 21 21 21 21 21 21 21 21 21 21 21 21 20 21 21 22 22 22 23 24 25 25 25 24 25 25 26 26 26 27 27 27 27 27 27 27 28 28 28 29 29 28 27 25 24 25 24 24 23 24 25 26 25 25 25 25 24 24 24 24 25 26
20 21 21 21 21 20 20 21 21 22 22 22 22 22 21 21 21 21 21 21 21 21 21 21 22 23 24 25 25 25 24 25 25 25 26 26 27 27 27 27 27 27 27 27 27 28 28 28 27 25 24 24 24 23 23 23 25 26 26 25 25 25 24 22 22 23 24 25 26
20 21 21 21 20 20 20 20 21 22 22 22 22 22 22 21 21 21 22 21 21 22 22 21 22 23 24 25 25 25 25 25 25 25 26 26 26 27 27 27 27 26 26 27 27 27 27 27 26 24 23 23 22 21 22 24 26 26 26 25 24 23 22 22 23 24 25 25 26
20 20 20 21 20 20 20 20 21 21 22 22 22 22 22 22 22 22 22 22 22 22 23 22 23 25 25 26 25 25 26 26 26 26 26 26 26 27 27 27 26 26 26 27 27 27 27 26 25 23 22 22 22 22 23 24 26 26 26 24 23 22 23 24 24 25 25 26 26
19 20 21 21 21 21 21 21 21 22 22 22 23 22 22 22 22 23 23 22 23 23 23 23 24 26 26 26 26 26 26 26 26 26 26 26 26 26 26 26 26 26 26 27 27 27 26 25 23 22 22 21 22 22 24 25 26 26 25 24 23 23 23 24 25 25 25 26 27
18 19 20 21 22 22 21 21 21 22 22 23 23 23 22 22 23 24 24 23 24 24 24 24 25 26 26 26 26 26 26 27 27 27 26 26 26 27 26 26 26 26 26 26 27 27 26 24 23 22 21 22 23 24 25 26 26 26 25 24 25 25 24 25 25 25 25 26 26
19 20 20 21 22 22 22 21 21 22 23 23 23 23 23 23 24 24 24 24 24 24 24 25 26 26 26 26 26 26 26 26 27 27 26 26 26 26 27 26 26 27 27 27 26 26 25 24 22 22 22 23 24 25 25 26 26 26 26 25 26 26 26 26 26 26 26 26 26
19 20 21 22 23 23 22 22 22 22 23 24 24 24 24 24 24 25 24 24 25 25 25 25 26 27 26 26 26 26 26 26 26 26 26 26 26 26 26 26 26 27 27 27 26 26 25 23 23 24 25 25 25 26 26 26 26 26 26 26 26 27 27 27 26 26 26 26 26
19 20 21 22 23 23 23 22 22 23 24 25 25 25 25 25 25 25 25 26 26 25 25 26 26 26 26 26 26 26 26 26 26 26 26 26 26 26 26 26 26 27 27 27 26 25 24 24 24 26 27 26 26 25 25 26 26 27 27 27 27 27 28 27 27 26 26 26 26
19 20 21 22 22 23 23 23 23 23 24 25 25 25 25 25 25 26 26 27 26 26 25 26 26 26 26 25 26 27 27 27 26 26 26 25 26 26 26 26 26 26 26 26 26 25 25 25 26 27 28 28 26 25 25 27 27 28 28 28 28 28 28 28 27 27 26 26 27
19 20 21 22 23 23 24 24 23 23 24 25 25 25 25 25 26 26 26 27 26 26 26 26 26 26 26 26 27 27 27 27 26 26 26 25 26 26 26 26 26 26 26 26 26 25 25 26 26 27 28 28 27 26 26 27 28 28 28 29 29 28 28 28 28 28 27 27 27
19 20 21 23 23 24 24 24 23 23 24 25 25 25 25 25 26 26 26 26 26 26 26 27 26 25 25 26 27 28 27 27 26 26 26 26 26 26 26 26 26 26 26 26 26 26 26 26 27 27 27 28 28 28 28 28 28 28 28 29 29 29 29 29 29 28 28 28 28
20 21 22 23 24 25 25 24 23 23 24 24 25 25 25 25 25 25 26 26 25 25 26 27 26 26 26 26 27 28 27 26 26 26 26 26 26 27 27 27 27 27 27 27 28 27 27 27 27 27 28 28 29 29 29 29 29 28 28 29 29 29 29 29 29 29 28 29 29
21 22 23 24 25 25 25 24 23 22 23 24 24 24 24 24 25 25 25 26 25 25 26 27 27 26 26 26 27 27 27 26 25 26 26 27 27 27 27 27 28 28 28 29 29 28 28 27 27 27 28 29 29 30 30 30 30 29 29 29 29 29 29 29 29 29 29 29 29
21 22 23 24 24 24 24 23 23 22 23 23 23 24 24 24 24 25 25 25 25 25 26 27 26 26 26 27 27 27 26 25 25 25 26 27 28 28 28 28 28 29 29 30 29 29 29 28 28 28 29 29 29 30 30 30 30 30 30 30 30 29 29 29 29 29 29 29 29
21 22 23 24 24 24 23 23 22 22 22 23 23 23 24 24 24 24 25 25 25 26 27 27 26 26 26 27 28 27 25 25 25 26 26 27 28 28 29 29 29 30 30 30 29 29 29 29 29 30 30 30 30 30 30 30 30 30 30 30 30 30 30 29 29 29 29 29 29
20 22 22 23 23 23 22 22 22 22 22 22 22 23 24 24 24 25 25 25 26 26 27 27 27 27 27 28 28 27 26 25 26 27 27 28 29 29 30 30 31 31 31 30 30 29 29 30 30 31 31 31 31 31 31 31 31 31 31 31 31 30 30 30 30 30 29 29 29
20 21 22 22 22 22 21 21 21 21 21 22 22 23 24 24 25 25 25 26 26 26 27 27 27 27 28 28 29 28 27 26 27 28 28 29 29 30 30 31 32 32 31 31 30 30 30 31 31 32 32 32 32 32 32 32 32 32 32 31 30 30 30 31 31 30 30 29 29
20 21 21 21 21 21 21 20 20 21 21 22 22 23 24 24 25 25 25 26 26 27 27 27 28 28 28 29 29 29 28 27 28 28 29 29 30 30 31 31 32 32 31 31 31 31 31 32 32 33 33 32 32 32 32 32 32 33 32 31 31 31 31 31 31 31 30 30 29
20 21 21 21 20 20 20 20 20 21 21 22 23 23 24 25 25 25 26 26 27 27 28 27 28 28 28 28 28 29 29 29 29 30 30 30 30 31 31 31 32 32 31 31 31 31 32 32 33 33 32 32 32 33 33 32 32 32 32 33 32 32 32 31 31 30 30 29 29
20 20 20 20 20 20 20 20 21 21 22 22 23 24 24 25 25 26 26 27 27 28 28 27 28 28 28 28 28 29 30 31 31 31 31 31 31 32 32 32 31 30 30 30 30 31 31 32 33 33 32 32 32 33 33 33 32 32 32 33 33 32 32 31 30 29 29 29 28
20 20 20 20 20 20 20 21 21 22 23 23 24 24 25 25 26 26 27 27 28 28 28 28 28 28 28 27 28 28 30 31 32 32 33 33 32 32 32 32 30 29 29 29 30 30 31 31 32 32 32 32 32 33 33 33 32 32 32 32 33 32 32 31 30 29 29 29 28
20 20 20 20 20 20 21 22 22 23 24 24 24 25 25 26 26 26 27 27 28 28 28 28 28 28 27 27 28 29 29 30 30 32 33 33 33 32 32 31 30 29 29 29 30 31 31 31 31 31 32 32 33 33 33 32 32 32 32 32 32 31 31 31 30 29 29 28 27
19 20 20 21 21 21 22 23 23 24 24 24 25 25 26 26 26 26 27 28 28 28 28 28 28 27 27 27 28 29 30 30 30 31 32 32 32 33 32 30 29 29 29 30 31 32 32 32 32 32 32 32 33 33 33 32 32 32 32 31 31 30 30 30 30 29 29 28 27
19 20 21 21 21 22 22 23 23 24 25 25 25 26 26 26 26 26 27 28 28 28 28 27 27 27 26 27 28 29 30 30 31 31 31 31 32 32 32 30 30 29 30 31 32 33 33 32 33 33 33 33 33 33 32 32 32 31 31 30 29 29 29 29 29 29 29 28 28
20 20 21 22 22 22 23 23 24 25 25 25 26 26 26 26 27 27 28 28 28 28 28 27 27 26 26 27 28 29 30 31 31 31 31 31 31 31 31 30 31 31 31 32 32 32 32 33 33 33 34 34 33 33 32 31 31 30 30 29 28 28 28 28 28 29 29 29 29
20 21 21 22 22 23 23 24 24 25 25 25 25 26 26 26 27 27 28 28 28 28 27 27 27 27 27 28 29 29 30 31 30 30 31 31 31 31 31 32 32 33 33 33 32 32 32 33 33 34 34 34 33 32 31 30 30 29 29 28 28 28 28 28 28 28 29 29 30
20 21 22 22 22 23 23 23 24 24 25 25 25 26 26 26 27 27 28 28 27 27 26 26 27 27 28 28 29 29 30 30 30 30 30 31 31 31 31 32 33 34 34 32 32 32 33 33 34 34 34 34 33 32 31 30 29 29 28 28 28 28 28 28 28 28 28 29 30
21 21 22 22 22 23 23 24 24 25 25 25 25 26 26 26 26 27 27 27 27 26 27 27 28 28 29 29 29 29 30 30 30 30 30 30 30 32 33 34 34 33 32 31 31 32 33 34 34 34 34 34 33 32 31 30 29 29 28 28 28 28 28 28 28 28 29 30 30
21 21 22 22 23 23 23 24 24 25 25 25 25 25 25 25 26 27 27 27 26 27 27 28 28 28 29 29 29 29 30 29 29 29 30 30 31 32 33 34 33 32 31 31 32 33 34 34 34 34 34 34 33 32 31 30 30 29 28 28 28 28 28 28 28 29 30 30 30
21 22 22 22 23 23 23 24 24 25 25 25 25 25 25 26 27 27 27 26 26 26 27 27 27 27 28 28 29 29 29 28 28 29 30 31 32 33 33 32 31 31 31 32 33 33 34 34 34 34 34 34 33 32 31 30 29 29 28 28 28 28 29 29 30 30 30 30 30
21 22 22 22 23 23 23 24 24 25 25 25 25 25 25 26 27 27 27 27 26 26 26 26 26 27 27 27 27 28 29 28 28 29 30 31 32 32 32 31 31 31 32 33 33 34 34 34 34 34 34 34 33 31 30 30 29 28 28 28 29 29 30 30 30 30 30 30 30
21 22 22 22 23 23 23 24 24 25 25 25 25 25 26 26 26 27 27 27 26 26 26 26 27 27 27 27 27 27 28 29 30 30 30 31 31 32 32 32 32 33 34 34 34 34 34 34 34 34 34 33 32 31 30 30 29 29 29 29 29 30 30 30 30 30 30 30 30
20 21 22 22 22 23 23 24 24 24 25 25 25 26 26 27 26 26 26 27 27 26 27 27 27 27 27 28 28 27 27 28 30 30 30 30 30 31 32 32 33 35 35 35 34 34 34 34 34 34 34 33 31 31 30 30 29 29 29 29 29 30 30 30 30 30 30 30 30
20 20 21 22 22 23 23 23 24 24 25 25 25 25 26 27 27 26 26 25 26 26 27 27 27 27 28 28 28 28 28 28 29 30 30 30 30 30 31 32 33 34 35 35 35 35 34 34 34 34 33 32 31 31 30 29 29 28 29 29 29 30 30 30 30 30 30 30 29
20 20 20 21 22 22 23 23 24 24 25 25 25 25 26 26 26 26 25 24 25 26 27 27 27 27 28 28 29 29 29 29 29 29 30 30 30 30 31 32 33 34 35 36 35 35 34 34 33 33 33 32 32 31 30 29 29 28 29 29 29 29 30 29 30 30 30 29 29
19 19 20 21 21 22 23 23 23 24 24 25 25 25 25 25 25 25 25 24 24 25 26 27 27 27 28 28 28 29 29 29 29 29 29 30 30 30 30 31 33 34 35 36 35 35 34 33 33 33 32 32 31 30 29 29 29 29 29 29 29 30 30 30 30 29 30 30 29
19 19 20 20 21 22 23 23 23 23 23 24 25 25 25 25 25 25 25 25 25 25 26 26 27 28 28 28 28 29 30 30 30 29 30 30 30 30 30 31 32 34 35 35 35 34 33 33 33 33 32 31 31 30 29 29 28 28 29 29 29 29 29 30 30 30 30 30 30
19 19 20 20 21 21 22 23 23 23 23 23 24 25 25 25 25 25 26 26 26 26 26 26 27 28 28 28 28 28 29 30 31 31 30 31 31 31 31 31 32 34 34 34 34 33 32 32 32 32 32 31 31 30 29 28 28 28 28 29 29 29 29 30 30 29 29 29 29
Wind_Direction
38 37 37 36 35 34 33 31 28 26 24 23 21 19 16 13 11 8 6 4 2 358 356 354 353 352 350 350 349 349 349 348 348 348 348 348 347 347 347 346 346 346 345 345 344 344 342 342 340 338 336 334 332 331 330 330 330 329 328 326 324 322 320 318 315 314 313 311 310
36 36 35 34 33 31 29 28 26 23 22 20 18 16 14 12 9 6 3 2 359 357 355 354 353 352 351 351 351 352 352 351 350 350 349 349 349 349 349 348 348 347 346 345 345 344 342 341 340 338 335 333 331 330 330 330 330 329 328 327 325 323 321 319 317 317 316 314 313
34 33 32 32 31 30 28 26 23 21 19 17 15 14 12 10 7 4 1 360 358 357 356 354 353 352 351 351 352 353 353 352 351 350 349 348 348 348 348 347 347 346 346 345 344 343 342 341 339 336 333 331 330 329 329 329 329 329 327 326 325 324 323 320 319 319 318 317 316
32 31 31 31 30 30 27 24 20 17 15 14 13 12 12 10 7 4 2 0 359 358 356 355 352 351 351 351 352 353 352 351 350 349 347 346 346 346 346 346 345 345 344 343 342 341 341 340 338 335 332 331 329 328 327 328 328 327 326 326 326 325 323 321 321 321 320 318 317
30 29 29 28 27 26 24 20 17 14 13 12 12 12 12 10 7 5 3 1 359 357 357 356 353 352 352 352 353 353 352 351 350 348 347 346 345 345 345 345 344 343 343 342 341 340 340 339 336 333 331 330 328 327 326 327 327 326 326 326 326 326 324 323 322 322 321 319 318
28 26 24 23 22 21 20 18 16 14 12 12 13 13 12 10 7 5 3 1 358 358 358 357 355 354 353 354 354 353 351 350 349 348 347 345 345 345 345 345 344 343 342 341 340 340 339 338 335 332 331 329 327 326 326 327 326 326 326 326 326 326 325 324 323 322 321 319 318
24 22 21 19 18 18 18 17 16 14 13 13 14 14 12 10 7 5 3 1 360 359 359 357 355 355 355 354 354 352 350 349 348 347 347 346 345 345 345 344 344 343 342 341 340 339 339 337 334 331 329 328 327 326 326 326 326 325 325 326 326 325 324 323 322 321 320 318 318
21 20 19 17 16 16 17 17 16 14 13 14 14 14 12 9 7 5 4 2 0 359 358 356 355 355 355 354 353 351 350 348 347 347 346 346 345 345 345 344 343 343 342 342 340 339 338 337 333 330 329 327 326 325 325 325 325 325 325 325 324 323 322 322 321 320 319 318 318
18 17 16 15 14 14 15 17 16 14 14 14 13 12 11 9 7 5 3 1 359 359 358 356 355 355 355 354 352 351 349 348 347 346 346 346 345 345 344 344 343 342 342 342 341 339 338 335 332 330 328 326 324 323 323 324 324 324 324 323 323 321 320 320 320 319 318 318 318
18 16 14 13 12 12 13 15 15 14 12 12 11 11 9 8 6 4 2 359 359 359 358 356 355 355 354 353 351 350 348 347 346 345 345 345 345 344 344 343 343 342 341 341 341 339 337 335 331 329 327 325 323 322 322 324 324 323 322 321 320 319 318 318 319 319 318 317 317
18 16 14 12 11 10 11 13 13 12 11 10 9 8 7 6 4 2 1 359 358 358 356 355 354 353 353 351 350 348 347 346 346 345 344 344 344 344 343 343 343 342 341 341 340 339 337 334 331 328 327 326 325 324 324 324 324 322 321 319 318 318 317 317 318 318 317 316 315
18 15 12 11 10 9 10 12 11 10 9 8 6 5 4 3 2 0 359 358 357 356 354 353 353 352 351 350 348 347 347 346 346 345 344 344 344 343 343 343 342 342 341 341 340 339 336 334 331 329 328 327 327 326 325 324 323 322 320 319 318 317 316 316 317 316 316 315 314
17 13 11 10 9 9 10 11 10 8 6 6 4 3 2 1 360 359 358 357 356 354 352 352 352 351 350 349 348 347 347 346 346 345 345 344 343 343 342 342 342 341 341 340 340 338 336 333 332 330 329 328 327 326 325 324 323 321 319 319 318 317 316 316 316 315 315 313 313
16 13 11 10 9 10 10 10 8 6 4 4 2 1 360 359 358 358 357 355 354 352 351 350 350 350 349 348 347 347 347 347 346 345 344 344 343 342 342 341 341 341 340 339 339 338 336 334 333 331 330 328 327 326 325 324 322 320 319 318 317 316 316 315 315 315 314 313 313
16 13 11 9 9 9 9 9 7 4 3 2 1 360 359 357 357 357 356 355 353 351 350 350 349 348 348 348 348 348 348 347 347 345 344 343 343 342 341 341 341 340 340 339 338 337 336 335 333 332 330 329 327 326 325 323 321 320 319 318 317 316 315 315 315 315 314 313 312
15 12 10 8 7 7 7 7 5 3 2 1 360 359 358 357 356 356 355 354 352 351 350 349 348 347 347 347 348 348 348 347 346 345 344 342 342 341 341 340 340 340 339 338 337 336 335 334 333 332 330 328 327 325 324 323 321 320 319 318 317 316 316 315 315 314 313 313 311
12 10 7 6 5 5 5 5 4 2 1 360 359 359 358 357 356 356 355 354 352 350 349 349 348 347 346 347 349 349 348 346 345 344 343 341 341 340 340 339 339 339 338 337 336 335 335 334 333 331 330 328 326 325 324 323 321 321 320 319 318 317 316 315 315 314 313 312 311
10 7 5 3 3 2 2 3 2 2 0 359 358 358 358 358 356 355 354 354 353 350 349 348 348 348 347 348 349 349 347 345 343 343 342 341 340 340 339 339 338 338 337 337 336 335 334 333 332 331 330 328 326 325 324 323 322 321 320 320 319 318 317 316 315 314 313 312 310
8 5 3 2 0 0 0 1 1 1 360 359 358 358 358 358 356 355 354 354 353 351 349 348 348 348 349 349 349 348 347 345 343 342 341 341 340 340 339 338 337 337 337 336 335 334 333 333 332 331 329 328 326 325 324 323 322 321 321 320 319 318 317 316 315 314 313 311 309
6 4 2 360 359 359 359 360 360 359 359 359 358 358 357 357 357 355 354 353 352 352 351 349 349 349 349 349 349 348 346 344 342 341 340 340 340 339 338 337 337 336 336 335 335 334 333 333 332 331 329 328 326 325 324 324 323 322 321 320 319 318 317 316 315 314 313 311 310
4 2 359 358 357 358 359 359 359 359 359 358 358 357 357 357 356 355 354 353 352 352 352 351 350 349 349 348 348 346 345 343 342 341 340 339 339 338 338 337 336 335 335 335 334 334 333 332 331 330 329 327 326 325 324 324 323 322 321 320 319 318 317 316 316 315 313 312 311
2 359 357 356 356 357 358 359 359 359 359 358 358 357 357 356 355 355 354 353 353 352 352 351 350 349 348 347 346 344 343 342 341 340 339 338 337 337 337 336 335 334 334 333 333 333 332 331 330 329 328 327 325 325 324 323 322 321 320 320 319 318 317 317 316 315 314 313 313
359 356 354 354 356 357 358 359 359 359 358 358 357 357 356 355 354 354 354 353 353 352 351 350 349 348 347 346 345 343 342 340 340 339 339 338 337 336 336 335 335 334 332 331 331 331 331 329 328 328 327 326 325 324 323 323 321 320 320 319 319 318 318 317 316 315 315 315 315
356 355 354 355 357 358 359 359 359 359 358 357 356 355 355 354 354 353 352 352 352 351 350 349 348 347 346 344 343 342 341 339 338 338 337 337 336 335 335 334 333 332 330 329 329 329 328 327 326 326 326 325 324 323 322 322 321 320 319 319 319 318 318 317 317 316 316 317 318
354 354 355 357 358 359 359 360 360 359 358 356 355 354 354 353 353 352 351 350 350 350 349 348 347 346 344 342 341 340 340 339 337 336 335 335 334 334 333 332 331 329 328 327 326 326 326 325 325 325 325 324 323 322 321 321 320 320 319 318 318 317 317 317 317 318 319 319 320
354 355 357 358 359 359 0 0 359 358 356 355 354 354 353 352 351 350 350 349 348 348 347 347 346 344 342 340 339 338 338 337 336 335 334 332 331 331 331 330 329 327 326 325 325 324 324 324 324 324 324 324 323 322 321 320 320 319 319 318 318 317 317 318 318 320 321 321 322
355 357 358 358 359 359 359 359 357 356 355 354 353 353 352 351 350 349 349 348 347 346 346 345 344 342 340 338 337 336 336 335 334 333 332 330 329 328 328 327 326 325 324 324 324 324 324 324 324 325 324 324 323 322 321 320 319 319 318 318 318 318 318 318 319 321 322 323 323
357 358 358 358 358 358 358 357 356 355 355 353 352 351 350 350 349 349 347 346 346 345 344 343 341 340 338 336 335 334 334 333 332 331 330 328 327 326 325 325 324 324 323 324 324 323 323 324 324 324 324 323 323 321 320 319 319 318 318 318 317 318 318 319 320 321 322 323 324
358 358 357 356 356 356 356 356 355 354 353 351 350 349 349 349 348 347 346 345 345 344 342 340 338 337 336 334 333 332 331 331 330 329 328 326 325 325 324 323 323 323 324 324 324 323 323 323 323 323 323 323 322 321 320 319 318 318 317 317 317 317 318 319 320 321 322 322 322
358 357 356 355 355 354 354 354 353 352 351 349 348 348 348 347 347 346 345 344 342 340 338 337 336 334 333 332 331 330 329 328 328 327 326 325 324 323 323 323 323 323 324 324 323 323 323 323 322 322 322 322 322 321 319 319 318 317 316 316 316 317 317 318 319 320 320 320 320
358 356 355 354 353 352 352 352 351 350 349 348 348 347 347 345 344 343 342 341 339 337 337 336 334 333 331 331 329 328 327 326 326 325 324 324 322 322 322 322 322 323 323 323 322 322 322 322 322 322 322 322 322 321 320 319 318 317 316 316 315 316 316 317 317 318 318 318 318
356 355 354 353 351 350 350 350 349 349 348 347 347 346 344 343 342 341 341 339 337 336 335 334 333 331 330 329 327 326 325 325 324 324 323 322 322 321 321 322 322 322 322 322 321 321 321 321 321 321 321 322 322 321 319 319 318 317 316 315 315 315 315 316 316 316 316 316 315
355 353 352 351 350 348 348 348 348 347 346 345 345 344 342 341 340 340 339 338 337 335 333 331 330 328 327 326 325 324 323 323 322 322 322 322 321 321 321 321 320 321 321 321 321 321 320 320 320 321 321 322 321 321 319 319 318 317 316 315 314 315 315 315 314 314 314 314 314
353 352 351 349 348 347 346 346 346 345 344 343 342 342 341 340 339 338 337 336 334 332 330 328 326 325 323 323 322 322 322 321 321 321 321 321 321 321 320 319 319 320 320 320 320 320 320 320 320 321 321 322 321 320 319 318 317 316 315 314 314 314 314 314 313 313 313 313 312
351 350 349 348 346 345 344 344 344 343 342 341 340 339 339 338 337 336 335 334 331 329 327 325 324 323 322 322 322 321 321 321 321 320 321 321 320 319 318 318 318 319 320 320 320 320 320 320 320 320 321 322 321 320 319 318 317 316 315 315 314 314 314 313 313 312 312 312 312
350 348 347 345 344 344 343 342 341 341 340 338 337 337 336 336 335 334 333 331 329 327 325 324 324 323 322 322 322 321 321 320 319 319 319 319 319 318 317 317 317 319 320 321 320 320 320 320 320 320 321 321 321 320 319 318 317 317 316 315 314 314 313 313 312 312 311 311 310
349 347 346 344 343 342 341 340 339 338 337 336 335 334 333 333 331 331 330 329 327 324 323 323 323 322 322 322 321 320 319 319 318 318 318 318 318 318 317 317 317 318 320 321 321 321 320 320 320 320 321 321 321 320 319 318 317 317 316 315 314 314 314 313 312 312 311 310 309
347 346 344 342 341 340 339 338 337 336 335 333 332 332 331 330 329 327 327 326 324 322 322 321 321 321 320 320 319 318 318 318 318 317 317 317 317 317 316 316 316 317 319 320 321 321 320 319 319 320 321 321 321 320 319 318 317 317 316 316 315 314 314 313 313 312 310 309 308
346 345 343 341 340 338 337 336 335 334 332 331 330 330 329 328 326 324 324 323 322 321 320 319 319 319 319 319 318 317 318 318 318 317 316 316 317 316 316 315 315 316 318 320 320 320 319 318 318 320 321 321 321 320 319 318 317 317 316 316 315 315 314 314 313 312 311 309 307
344 343 342 340 338 337 335 334 333 332 331 330 328 327 326 324 322 322 322 321 321 320 319 318 317 317 318 318 317 317 317 317 318 317 317 316 316 316 316 315 314 315 317 319 320 319 318 317 318 320 321 321 321 320 319 319 317 317 316 316 315 315 314 314 314 313 311 309 308
341 341 340 338 337 336 334 332 331 330 330 328 326 324 323 322 321 321 321 321 321 320 319 318 317 317 317 317 317 316 316 317 317 317 317 317 317 316 316 315 314 315 316 318 319 318 316 316 318 320 321 321 321 321 320 319 318 317 316 316 315 314 314 314 314 313 312 310 309